BEE1426 EGJJ-EGHH

Flight info

Callsign BEE1426
Flight time 0h 26m
Altitude 15000
Route ORIST Y110 THRED
Aircraft DH8D/M-SDE2E3FGRY/H

Departure

Time 2026-05-09 12:51
Airport Jersey Airport (EGJJ)

Arrival

Time 2026-05-09 13:18
Airport Bournemouth Airport (EGHH)
Time Latitude Longitude Altitude Speed Heading
2026-05-09 12:28 49.20486 -2.19783 274 ft 0 kts 355°
2026-05-09 12:29 49.20486 -2.19750 273 ft 0 kts 355°
2026-05-09 12:29 49.20488 -2.19728 274 ft 0 kts 355°
2026-05-09 12:44 49.20489 -2.19728 274 ft 0 kts 355°
2026-05-09 12:45 49.20478 -2.19726 274 ft 2 kts 354°
2026-05-09 12:45 49.20464 -2.19725 274 ft 2 kts 355°
2026-05-09 12:45 49.20454 -2.19723 274 ft 1 kts 353°
2026-05-09 12:45 49.20443 -2.19713 274 ft 1 kts 294°
2026-05-09 12:46 49.20442 -2.19698 274 ft 1 kts 264°
2026-05-09 12:46 49.20442 -2.19696 274 ft 0 kts 264°
2026-05-09 12:47 49.20441 -2.19702 274 ft 3 kts 264°
2026-05-09 12:48 49.20436 -2.19795 273 ft 12 kts 266°
2026-05-09 12:48 49.20441 -2.19910 273 ft 3 kts 344°
2026-05-09 12:48 49.20490 -2.19917 273 ft 9 kts 340°
2026-05-09 12:48 49.20528 -2.20040 273 ft 15 kts 287°
2026-05-09 12:49 49.20560 -2.20205 273 ft 17 kts 287°
2026-05-09 12:49 49.20596 -2.20382 272 ft 10 kts 287°
2026-05-09 12:49 49.20614 -2.20479 272 ft 5 kts 285°
2026-05-09 12:49 49.20625 -2.20563 272 ft 10 kts 277°
2026-05-09 12:50 49.20641 -2.20680 272 ft 12 kts 316°
2026-05-09 12:50 49.20701 -2.20648 272 ft 7 kts 66°
2026-05-09 12:50 49.20706 -2.20620 272 ft 0 kts 82°
2026-05-09 12:50 49.20707 -2.20613 272 ft 6 kts 83°
2026-05-09 12:51 49.20747 -2.20110 273 ft 94 kts 80°
2026-05-09 12:51 49.20840 -2.18797 402 ft 143 kts 87°
2026-05-09 12:51 49.20968 -2.17231 1010 ft 158 kts 80°
2026-05-09 12:51 49.21084 -2.15510 1688 ft 171 kts 85°
2026-05-09 12:52 49.21173 -2.13684 2489 ft 178 kts 85°
2026-05-09 12:52 49.21317 -2.11667 2876 ft 205 kts 84°
2026-05-09 12:52 49.21475 -2.09487 3577 ft 209 kts 84°
2026-05-09 12:52 49.21692 -2.07257 4171 ft 216 kts 78°
2026-05-09 12:53 49.22417 -2.05285 4781 ft 225 kts 44°
2026-05-09 12:53 49.23898 -2.04404 5372 ft 239 kts 10°
2026-05-09 12:53 49.25554 -2.04284 6011 ft 244 kts
2026-05-09 12:53 49.27255 -2.04208 6646 ft 248 kts
2026-05-09 12:54 49.28995 -2.04135 7318 ft 250 kts
2026-05-09 12:54 49.30726 -2.04059 7936 ft 254 kts
2026-05-09 12:54 49.32507 -2.03977 8584 ft 257 kts
2026-05-09 12:54 49.34304 -2.03891 9249 ft 261 kts
2026-05-09 12:55 49.36099 -2.03803 9923 ft 264 kts
2026-05-09 12:55 49.37944 -2.03712 10513 ft 266 kts
2026-05-09 12:55 49.39808 -2.03619 11077 ft 269 kts
2026-05-09 12:55 49.41666 -2.03526 11705 ft 272 kts
2026-05-09 12:56 49.43575 -2.03428 12308 ft 274 kts
2026-05-09 12:56 49.45477 -2.03332 12838 ft 276 kts
2026-05-09 12:56 49.47399 -2.03232 13368 ft 277 kts
2026-05-09 12:56 49.49324 -2.03132 13864 ft 279 kts
2026-05-09 12:57 49.51278 -2.03031 14362 ft 282 kts
2026-05-09 12:57 49.53241 -2.02928 14813 ft 285 kts
2026-05-09 12:57 49.55262 -2.02821 14980 ft 300 kts
2026-05-09 12:57 49.57383 -2.02704 15032 ft 316 kts
2026-05-09 12:58 49.59637 -2.02581 15005 ft 331 kts
2026-05-09 12:58 49.61964 -2.02439 15035 ft 342 kts
2026-05-09 12:58 49.64378 -2.02272 15021 ft 351 kts
2026-05-09 12:58 49.66859 -2.02088 14997 ft 357 kts
2026-05-09 12:59 49.69335 -2.01903 15020 ft 362 kts
2026-05-09 12:59 49.71852 -2.01719 15020 ft 362 kts
2026-05-09 12:59 49.74343 -2.01549 15021 ft 354 kts
2026-05-09 12:59 49.76792 -2.01409 15016 ft 347 kts
2026-05-09 13:00 49.79157 -2.00890 15002 ft 340 kts 19°
2026-05-09 13:00 49.81263 -1.99346 15043 ft 334 kts 30°
2026-05-09 13:00 49.83300 -1.97661 15045 ft 332 kts 29°
2026-05-09 13:00 49.85339 -1.96039 15035 ft 330 kts 28°
2026-05-09 13:01 49.87374 -1.94428 15020 ft 328 kts 28°
2026-05-09 13:01 49.89410 -1.92811 15035 ft 327 kts 28°
2026-05-09 13:01 49.91407 -1.91220 15032 ft 326 kts 28°
2026-05-09 13:01 49.93428 -1.89607 15029 ft 324 kts 28°
2026-05-09 13:02 49.95415 -1.88017 15015 ft 324 kts 28°
2026-05-09 13:02 49.97404 -1.86425 15030 ft 323 kts 28°
2026-05-09 13:02 49.99414 -1.84858 15023 ft 323 kts 25°
2026-05-09 13:02 50.01597 -1.84012 15043 ft 323 kts
2026-05-09 13:03 50.03819 -1.83729 15035 ft 323 kts
2026-05-09 13:03 50.06067 -1.83474 15031 ft 324 kts
2026-05-09 13:03 50.08335 -1.83202 14864 ft 330 kts
2026-05-09 13:03 50.10635 -1.82897 14463 ft 340 kts
2026-05-09 13:04 50.13015 -1.82543 14095 ft 346 kts
2026-05-09 13:04 50.15348 -1.81870 13701 ft 333 kts 15°
2026-05-09 13:04 50.17510 -1.80882 13273 ft 317 kts 18°
2026-05-09 13:04 50.19581 -1.79952 12829 ft 303 kts 17°
2026-05-09 13:05 50.21571 -1.79092 12362 ft 293 kts 17°
2026-05-09 13:05 50.23515 -1.78248 11885 ft 285 kts 17°
2026-05-09 13:05 50.25379 -1.77432 11395 ft 279 kts 17°
2026-05-09 13:05 50.27245 -1.76603 10913 ft 277 kts 17°
2026-05-09 13:06 50.29095 -1.75817 10430 ft 278 kts 13°
2026-05-09 13:06 50.31044 -1.75883 9915 ft 287 kts 347°
2026-05-09 13:06 50.32921 -1.76857 9516 ft 288 kts 341°
2026-05-09 13:06 50.34801 -1.77942 9082 ft 289 kts 340°
2026-05-09 13:07 50.36698 -1.79049 8661 ft 288 kts 341°
2026-05-09 13:07 50.38565 -1.80139 8238 ft 288 kts 341°
2026-05-09 13:07 50.40422 -1.81221 7815 ft 286 kts 341°
2026-05-09 13:07 50.42238 -1.82291 7363 ft 275 kts 341°
2026-05-09 13:08 50.43994 -1.83339 6956 ft 264 kts 341°
2026-05-09 13:08 50.45681 -1.84345 6572 ft 255 kts 342°
2026-05-09 13:08 50.47311 -1.85314 6182 ft 247 kts 342°
2026-05-09 13:08 50.48893 -1.86254 5790 ft 240 kts 342°
2026-05-09 13:09 50.50422 -1.87161 5460 ft 231 kts 342°
2026-05-09 13:09 50.51897 -1.88037 5168 ft 221 kts 343°
2026-05-09 13:09 50.53295 -1.88868 4870 ft 211 kts 343°
2026-05-09 13:09 50.54635 -1.89664 4580 ft 202 kts 343°
2026-05-09 13:10 50.55938 -1.90436 4318 ft 198 kts 343°
2026-05-09 13:10 50.57230 -1.91187 4133 ft 197 kts 344°
2026-05-09 13:10 50.58486 -1.91934 3924 ft 188 kts 344°
2026-05-09 13:10 50.59677 -1.92642 3738 ft 182 kts 344°
2026-05-09 13:11 50.60767 -1.93646 3538 ft 183 kts 316°
2026-05-09 13:11 50.61534 -1.95244 3360 ft 182 kts 310°
2026-05-09 13:11 50.62284 -1.96862 3192 ft 185 kts 310°
2026-05-09 13:11 50.63039 -1.98498 3038 ft 187 kts 310°
2026-05-09 13:12 50.63817 -2.00174 2881 ft 190 kts 310°
2026-05-09 13:12 50.64595 -2.01851 2700 ft 193 kts 310°
2026-05-09 13:12 50.65398 -2.03580 2521 ft 195 kts 310°
2026-05-09 13:12 50.66219 -2.05280 2365 ft 195 kts 318°
2026-05-09 13:13 50.67342 -2.06293 2189 ft 184 kts 356°
2026-05-09 13:13 50.68576 -2.06160 2063 ft 176 kts 15°
2026-05-09 13:13 50.69785 -2.05825 2011 ft 172 kts 14°
2026-05-09 13:13 50.70946 -2.05519 1975 ft 169 kts 15°
2026-05-09 13:14 50.72080 -2.05039 1948 ft 166 kts 27°
2026-05-09 13:14 50.73125 -2.04272 1929 ft 168 kts 29°
2026-05-09 13:16 50.76431 -1.93707 1156 ft 143 kts 73°
2026-05-09 13:16 50.76679 -1.92196 965 ft 140 kts 73°
2026-05-09 13:16 50.76926 -1.90715 771 ft 138 kts 73°
2026-05-09 13:16 50.77182 -1.89291 597 ft 133 kts 74°
2026-05-09 13:17 50.77416 -1.87900 422 ft 127 kts 77°
2026-05-09 13:17 50.77626 -1.86565 254 ft 124 kts 78°
2026-05-09 13:17 50.77843 -1.85261 75 ft 122 kts 78°
2026-05-09 13:17 50.78016 -1.84195 48 ft 65 kts 75°
2026-05-09 13:18 50.78102 -1.83691 48 ft 23 kts 75°
2026-05-09 13:18 50.78081 -1.83575 48 ft 7 kts 160°
2026-05-09 13:18 50.78017 -1.83545 48 ft 9 kts 163°
2026-05-09 13:18 50.77970 -1.83525 48 ft 8 kts 158°
2026-05-09 13:19 50.77916 -1.83487 48 ft 6 kts 169°
2026-05-09 13:19 50.77844 -1.83472 48 ft 5 kts 175°
2026-05-09 13:19 50.77810 -1.83511 48 ft 5 kts 269°
2026-05-09 13:19 50.77810 -1.83550 48 ft 0 kts 268°